Change the Weather History Date:

Tuesday, April 29, 2014

  Actual Average (KAMA) Record (KAMA)
Temperature  
Mean Temperature 48 °F 60 °F  
Max Temperature 61 °F 75 °F 94 °F (1910)
Min Temperature 36 °F 46 °F 30 °F (1907)
Degree Days  
Heating Degree Days 17 6  
Month to date heating degree days 275  
Since 1 July heating degree days 4084  
Cooling Degree Days 0 1  
Month to date cooling degree days 15  
Year to date cooling degree days 17  
Moisture  
Dew Point 25 °F    
Average Humidity 40    
Maximum Humidity 77    
Minimum Humidity 19    
Precipitation  
Precipitation 0.00 in 0.05 in 1.56 in (1901)
Month to date precipitation 1.35  
Year to date precipitation 4.02  
Snow  
Snow 0.00 in 0.00 in 0.20 in (1903)
Month to date snowfall 0.7  
Since 1 July snowfall 17.6  
Snow Depth -    
Sea Level Pressure  
Sea Level Pressure 30.03 in    
Wind  
Wind Speed 17 mph (NNW)    
Max Wind Speed 40 mph    
Max Gust Speed 52 mph    
Visibility 7 miles    
Events      
T = Trace of Precipitation, MM = Missing Value Source: NWS Daily Summary

Daily Weather History Graph

Daily Weather History Graph

Search for Another Location

Airport or City:

Trip Planner

Search our weather history database for the weather conditions in past years. The results will help you decide how hot, cold, wet, or windy it might be!

Date:

Astronomy

Apr. 29, 2014 Rise Set
Actual Time 7:00 AM CDT 8:32 PM CDT
Civil Twilight 6:33 AM CDT 8:59 PM CDT
Nautical Twilight 6:01 AM CDT 9:32 PM CDT
Astronomical Twilight 5:27 AM CDT 10:06 PM CDT
Moon 7:20 AM CDT 9:14 PM CDT
Length of Visible Light 14h 25m
Length of Day
13h 32m
New Moon, 0% of the Moon is Illuminated
Apr 29
New Moon
May 6
First Quarter
May 14
Full
May 21
Last Quarter
May 28
New

Hourly Weather History & Observations

Time (CDT) Temp. Windchill Dew Point Humidity Pressure Visibility Wind Dir Wind Speed Gust Speed Precip Events Conditions
12:15 AM 50.0 °F - 31.3 °F 49% 29.90 in 10.0 mi North - - N/A   Clear
12:35 AM 48.0 °F - 31.1 °F 52% 29.91 in 10.0 mi NNE 8.1 mph - N/A   Clear
12:55 AM 46.2 °F - 31.3 °F 56% 29.91 in 10.0 mi North - - N/A   Clear
1:15 AM 44.8 °F 41.0 °F 31.5 °F 60% 29.93 in 10.0 mi NNW 6.9 mph - N/A   Clear
1:35 AM 43.7 °F 38.6 °F 29.3 °F 57% 29.94 in 10.0 mi NNW 9.2 mph - N/A   Scattered Clouds
1:55 AM 44.8 °F 41.0 °F 30.9 °F 58% 29.93 in 10.0 mi NNW 6.9 mph - N/A   Scattered Clouds
2:15 AM 44.4 °F 40.0 °F 29.5 °F 56% 29.95 in 10.0 mi NW 8.1 mph - N/A   Clear
2:35 AM 45.7 °F 40.6 °F 29.8 °F 54% 29.95 in 10.0 mi North 10.4 mph - N/A   Scattered Clouds
2:55 AM 44.6 °F 40.7 °F 28.6 °F 53% 29.95 in 10.0 mi North 6.9 mph - N/A   Scattered Clouds
3:15 AM 44.8 °F 40.4 °F 28.4 °F 53% 29.96 in 10.0 mi North 8.1 mph - N/A   Scattered Clouds
3:55 AM 44.6 °F 36.4 °F 34.0 °F 66% 29.98 in 10.0 mi North 20.7 mph 25.3 mph N/A   Mostly Cloudy
4:15 AM 44.8 °F 38.3 °F 34.2 °F 66% 29.99 in 10.0 mi North 13.8 mph - N/A   Mostly Cloudy
4:35 AM 43.5 °F 40.1 °F 33.4 °F 68% 29.98 in 10.0 mi North 5.8 mph - N/A   Mostly Cloudy
4:55 AM 41.7 °F 37.3 °F 32.2 °F 69% 29.99 in 10.0 mi NNW 6.9 mph - N/A   Scattered Clouds
5:15 AM 40.1 °F 34.7 °F 31.8 °F 72% 30.00 in 10.0 mi NW 8.1 mph - N/A   Scattered Clouds
5:35 AM 42.3 °F 36.3 °F 32.2 °F 67% 29.99 in 10.0 mi NW 10.4 mph - N/A   Mostly Cloudy
5:55 AM 41.7 °F 36.1 °F 31.8 °F 68% 30.00 in 10.0 mi NW 9.2 mph - N/A   Scattered Clouds
6:15 AM 39.9 °F 34.5 °F 30.9 °F 70% 30.00 in 10.0 mi WNW 8.1 mph - N/A   Clear
6:35 AM 37.8 °F 31.3 °F 30.7 °F 76% 30.01 in 10.0 mi WNW 9.2 mph - N/A   Clear
6:55 AM 36.7 °F 29.9 °F 30.2 °F 77% 30.02 in 10.0 mi West 9.2 mph - N/A   Clear
7:15 AM 36.7 °F 30.5 °F 29.5 °F 75% 30.02 in 10.0 mi WNW 8.1 mph - N/A   Clear
7:35 AM 38.5 °F - 29.3 °F 70% 30.03 in 10.0 mi North - - N/A   Clear
7:55 AM 41.9 °F 36.3 °F 29.1 °F 61% 30.04 in 10.0 mi NW 9.2 mph - N/A   Clear
8:15 AM 43.9 °F 38.3 °F 29.3 °F 57% 30.04 in 10.0 mi WNW 10.4 mph - N/A   Clear
8:35 AM 46.9 °F - 28.0 °F 48% 30.05 in 10.0 mi WNW 15.0 mph 19.6 mph N/A   Clear
8:55 AM 49.8 °F - 26.1 °F 40% 30.06 in 10.0 mi NW 18.4 mph 24.2 mph N/A   Clear
9:15 AM 51.3 °F - 24.1 °F 35% 30.06 in 10.0 mi NW 20.7 mph 25.3 mph N/A   Clear
9:35 AM 52.5 °F - 22.8 °F 31% 30.07 in 10.0 mi NW 21.9 mph 28.8 mph N/A   Clear
9:55 AM 53.6 °F - 22.6 °F 30% 30.07 in 10.0 mi NNW 29.9 mph 38.0 mph N/A   Clear
10:15 AM 54.5 °F - 21.4 °F 28% 30.07 in 7.0 mi NNW 32.2 mph 43.7 mph N/A   Scattered Clouds
10:35 AM 54.5 °F - 21.2 °F 27% 30.07 in 7.0 mi North 33.4 mph 51.8 mph N/A   Scattered Clouds
10:55 AM 55.6 °F - 20.3 °F 25% 30.06 in 3.0 mi North 31.1 mph 51.8 mph N/A   Haze
11:15 AM 54.0 °F - 21.0 °F 28% 30.06 in 10.0 mi NNW 28.8 mph 39.1 mph N/A   Overcast
11:35 AM 55.4 °F - 20.8 °F 26% 30.07 in 10.0 mi NNW 29.9 mph 36.8 mph N/A   Mostly Cloudy
11:55 AM 55.6 °F - 21.0 °F 26% 30.07 in 10.0 mi NNW 31.1 mph 41.4 mph N/A   Mostly Cloudy
12:15 PM 56.7 °F - 18.1 °F 22% 30.05 in 7.0 mi NNW 34.5 mph 44.9 mph N/A   Mostly Cloudy
12:35 PM 58.3 °F - 16.3 °F 19% 30.05 in 3.0 mi NNW 38.0 mph 46.0 mph N/A   Haze
12:55 PM 58.8 °F - 16.7 °F 19% 30.05 in 4.0 mi North 33.4 mph 48.3 mph N/A   Haze
1:15 PM 58.6 °F - 18.1 °F 21% 30.04 in 4.0 mi North 39.1 mph 47.2 mph N/A   Haze
1:35 PM 59.9 °F - 18.3 °F 20% 30.04 in 7.0 mi North 38.0 mph 47.2 mph N/A   Overcast
1:55 PM 59.9 °F - 18.1 °F 20% 30.04 in 5.0 mi NNW 34.5 mph 46.0 mph N/A   Haze
2:15 PM 59.9 °F - 19.9 °F 21% 30.04 in 5.0 mi North 40.3 mph 46.0 mph N/A   Haze
2:35 PM 60.4 °F - 19.2 °F 20% 30.04 in 5.0 mi North 35.7 mph 49.5 mph N/A   Haze
2:55 PM 58.8 °F - 22.1 °F 24% 30.04 in 4.0 mi North 31.1 mph 38.0 mph N/A   Haze
3:15 PM 59.0 °F - 20.5 °F 23% 30.04 in 5.0 mi NNW 35.7 mph 46.0 mph N/A   Haze
3:35 PM 59.7 °F - 19.4 °F 21% 30.03 in 4.0 mi NNW 34.5 mph 50.6 mph N/A   Haze
3:55 PM 59.2 °F - 20.8 °F 23% 30.03 in 5.0 mi NNW 33.4 mph 41.4 mph N/A   Haze
4:15 PM 60.1 °F - 19.9 °F 21% 30.03 in 5.0 mi North 36.8 mph 47.2 mph N/A   Haze
4:35 PM 59.4 °F - 21.4 °F 23% 30.03 in 4.0 mi NNW 28.8 mph 41.4 mph N/A   Haze
4:55 PM 58.1 °F - 23.2 °F 26% 30.04 in 2.5 mi North 27.6 mph 43.7 mph N/A   Haze
5:35 PM 60.6 °F - 18.7 °F 20% 30.03 in 5.0 mi North 32.2 mph 38.0 mph N/A   Haze
5:55 PM 60.8 °F - 17.8 °F 19% 30.03 in 5.0 mi North 25.3 mph 39.1 mph N/A   Haze
6:15 PM 59.7 °F - 21.4 °F 23% 30.04 in 3.0 mi North 25.3 mph 34.5 mph N/A   Haze
6:35 PM 59.9 °F - 19.4 °F 21% 30.04 in 5.0 mi North 26.5 mph 35.7 mph N/A   Haze
6:55 PM 59.0 °F - 19.9 °F 22% 30.04 in 4.0 mi North 28.8 mph 34.5 mph N/A   Haze
7:15 PM 58.1 °F - 20.5 °F 23% 30.04 in 4.0 mi North 26.5 mph 36.8 mph N/A   Haze
7:35 PM 57.2 °F - 20.1 °F 24% 30.04 in 3.0 mi North 28.8 mph 34.5 mph N/A   Haze
7:55 PM 56.1 °F - 20.5 °F 25% 30.05 in 3.0 mi North 26.5 mph 32.2 mph N/A   Haze
8:15 PM 55.4 °F - 22.1 °F 27% 30.07 in 3.0 mi North 24.2 mph 33.4 mph N/A   Haze
8:35 PM 54.7 °F - 23.0 °F 29% 30.08 in 3.0 mi North 23.0 mph 28.8 mph N/A   Haze
9:35 PM 52.5 °F - 23.4 °F 32% 30.11 in 4.0 mi NNE 19.6 mph 26.5 mph N/A   Haze
9:55 PM 52.5 °F - 23.0 °F 32% 30.12 in 5.0 mi North 25.3 mph 29.9 mph N/A   Haze
10:15 PM 52.2 °F - 23.4 °F 33% 30.13 in 4.0 mi NNE 21.9 mph 26.5 mph N/A   Haze
10:35 PM 51.6 °F - 22.5 °F 32% 30.14 in 4.0 mi North 24.2 mph 29.9 mph N/A   Haze
10:55 PM 50.9 °F - 23.0 °F 34% 30.16 in 5.0 mi North 21.9 mph 28.8 mph N/A   Haze
11:15 PM 50.0 °F - 23.9 °F 36% 30.17 in 7.0 mi North 23.0 mph 29.9 mph N/A   Overcast
11:35 PM 48.4 °F - 25.0 °F 40% 30.17 in 10.0 mi North 16.1 mph 25.3 mph N/A   Scattered Clouds
11:55 PM 47.3 °F - 25.5 °F 43% 30.18 in 10.0 mi North 11.5 mph - N/A   Scattered Clouds